Grove, OK

1:32 PM CDT on October 22, 2017 (GMT -0500)
Grove Municipal

Weather History for KGMJ - January, 2013

Change the Weather History Date:

Sunday, January 27, 2013

  Actual Average (KSLG) Record (KSLG)
Temperature  
Mean Temperature 54 °F -  
Max Temperature 62 °F 44 °F 66 °F (2015)
Min Temperature 46 °F 27 °F 6 °F (2004)
Degree Days  
Heating Degree Days 11    
Growing Degree Days 4 (Base 50)    
Moisture  
Dew Point 49 °F    
Average Humidity 79    
Maximum Humidity 100    
Minimum Humidity 54    
Precipitation  
Precipitation 0.00 in - - ()
Sea Level Pressure  
Sea Level Pressure 29.99 in    
Wind  
Wind Speed 11 mph (South)    
Max Wind Speed 22 mph    
Max Gust Speed 29 mph    
Visibility 10 miles    
Events Rain    
Averages and records for this station are not official NWS values.
T = Trace of Precipitation, MM = Missing Value Source: NWS Daily Summary

Daily Weather History Graph

Daily Weather History Graph

Search for Another Location

Airport or City:

Trip Planner

Search our weather history database for the weather conditions in past years. The results will help you decide how hot, cold, wet, or windy it might be!

Date:

Astronomy

Jan. 27, 2013 Rise Set
Actual Time 7:24 AM CST 5:39 PM CST
Civil Twilight 6:56 AM CST 6:07 PM CST
Nautical Twilight 6:25 AM CST 6:38 PM CST
Astronomical Twilight 5:55 AM CST 7:08 PM CST
Moon 6:31 PM CST (1/27) 7:19 AM CST (1/27)
Length of Visible Light 11h 10m
Length of Day
10h 15m
Full, 100% of the Moon is Illuminated
Jan 27
Full
Feb 3
Last Quarter
Feb 10
New
Feb 17
First Quarter
Feb 25
Full

Hourly Weather History & Observations

Time (CST) Temp. Windchill Dew Point Humidity Pressure Visibility Wind Dir Wind Speed Gust Speed Precip Events Conditions
12:15 AM 48.2 °F - 32.0 °F 54% 30.13 in 10.0 mi SSE 9.2 mph 16.1 mph N/A Rain Light Rain
12:35 AM 46.4 °F 42.9 °F 33.8 °F 62% 30.12 in 10.0 mi SSE 6.9 mph - N/A Rain Light Rain
12:55 AM 46.4 °F 41.5 °F 35.6 °F 66% 30.10 in 10.0 mi SE 10.4 mph - N/A   Light Drizzle
1:15 AM 46.4 °F 44.3 °F 35.6 °F 66% 30.12 in 10.0 mi SSE 4.6 mph 16.1 mph N/A Rain Light Rain
1:35 AM 46.4 °F 42.4 °F 35.6 °F 66% 30.12 in 10.0 mi SSE 8.1 mph - N/A   Mostly Cloudy
1:55 AM 48.2 °F - 35.6 °F 62% 30.13 in 10.0 mi SSE 4.6 mph - N/A   Mostly Cloudy
2:15 AM 48.2 °F - 37.4 °F 66% 30.12 in 10.0 mi SE 5.8 mph - N/A   Overcast
2:35 AM 48.2 °F - 37.4 °F 66% 30.10 in 10.0 mi ESE 5.8 mph - N/A   Overcast
2:55 AM 48.2 °F - 41.0 °F 76% 30.09 in 10.0 mi ESE 8.1 mph - N/A Rain Light Rain
3:15 AM 48.2 °F - 41.0 °F 76% 30.07 in 10.0 mi SE 9.2 mph - N/A   Overcast
3:35 AM 48.2 °F - 41.0 °F 76% 30.05 in 10.0 mi SE 10.4 mph - N/A   Overcast
3:55 AM 50.0 °F - 41.0 °F 71% 30.04 in 10.0 mi SE 11.5 mph - N/A   Overcast
4:15 AM 50.0 °F - 42.8 °F 76% 30.05 in 10.0 mi SSE 11.5 mph 17.3 mph N/A   Overcast
4:35 AM 50.0 °F - 42.8 °F 76% 30.05 in 10.0 mi SSE 8.1 mph - N/A   Overcast
4:55 AM 50.0 °F - 42.8 °F 76% 30.05 in 10.0 mi SSE 5.8 mph - N/A   Overcast
5:15 AM 50.0 °F - 42.8 °F 76% 30.05 in 10.0 mi SSE 8.1 mph - N/A   Overcast
5:35 AM 50.0 °F - 42.8 °F 76% 30.04 in 10.0 mi SSE 5.8 mph - N/A   Overcast
5:55 AM 50.0 °F - 44.6 °F 82% 30.03 in 10.0 mi SSE 10.4 mph - N/A   Overcast
6:15 AM 50.0 °F - 44.6 °F 82% 30.03 in 10.0 mi SSE 9.2 mph - N/A   Overcast
6:35 AM 51.8 °F - 44.6 °F 76% 30.04 in 10.0 mi SSE 8.1 mph - N/A   Overcast
6:55 AM 51.8 °F - 44.6 °F 76% 30.04 in 10.0 mi SSE 9.2 mph - N/A   Overcast
7:15 AM 51.8 °F - 46.4 °F 82% 30.04 in 10.0 mi SSE 9.2 mph - N/A   Overcast
7:35 AM 51.8 °F - 46.4 °F 82% 30.04 in 10.0 mi South 11.5 mph 17.3 mph N/A   Overcast
7:55 AM 53.6 °F - 48.2 °F 82% 30.04 in 10.0 mi South 11.5 mph - N/A   Overcast
8:15 AM 53.6 °F - 48.2 °F 82% 30.04 in 10.0 mi South 13.8 mph 18.4 mph N/A   Overcast
8:35 AM 53.6 °F - 48.2 °F 82% 30.05 in 10.0 mi South 10.4 mph 16.1 mph N/A   Overcast
8:55 AM 53.6 °F - 50.0 °F 88% 30.04 in 10.0 mi South 12.7 mph - N/A   Overcast
9:15 AM 53.6 °F - 50.0 °F 88% 30.03 in 10.0 mi South 13.8 mph 17.3 mph N/A   Overcast
9:35 AM 53.6 °F - 50.0 °F 88% 30.03 in 10.0 mi South 13.8 mph 21.9 mph N/A   Overcast
9:55 AM 55.4 °F - 50.0 °F 82% 30.03 in 10.0 mi South 15.0 mph 21.9 mph N/A   Overcast
10:15 AM 55.4 °F - 51.8 °F 88% 30.04 in 10.0 mi South 15.0 mph 20.7 mph N/A   Overcast
10:35 AM 55.4 °F - 51.8 °F 88% 30.03 in 10.0 mi South 15.0 mph 23.0 mph N/A   Overcast
10:55 AM 57.2 °F - 51.8 °F 82% 30.03 in 10.0 mi South 18.4 mph 28.8 mph N/A   Overcast
11:15 AM 57.2 °F - 51.8 °F 82% 30.03 in 10.0 mi South 18.4 mph 26.5 mph N/A   Overcast
11:35 AM 57.2 °F - 51.8 °F 82% 30.02 in 10.0 mi South 17.3 mph 26.5 mph N/A   Overcast
11:55 AM 55.4 °F - 53.6 °F 94% 30.01 in 10.0 mi South 18.4 mph 23.0 mph N/A Rain Light Rain
12:15 PM 55.4 °F - 55.4 °F 100% 30.00 in 10.0 mi South 12.7 mph 24.2 mph N/A Rain Light Rain
12:35 PM 55.4 °F - 55.4 °F 100% 29.98 in 10.0 mi South 9.2 mph 17.3 mph N/A   Overcast
12:55 PM 55.4 °F - 55.4 °F 100% 29.96 in 10.0 mi South 12.7 mph - N/A   Overcast
1:15 PM 57.2 °F - 55.4 °F 94% 29.96 in 10.0 mi South 12.7 mph 25.3 mph N/A   Overcast
1:35 PM 59.0 °F - 53.6 °F 82% 29.96 in 10.0 mi South 16.1 mph 23.0 mph N/A   Overcast
1:55 PM 60.8 °F - 53.6 °F 77% 29.95 in 10.0 mi South 20.7 mph 26.5 mph N/A   Overcast
2:15 PM 60.8 °F - 53.6 °F 77% 29.94 in 10.0 mi South 17.3 mph 25.3 mph N/A   Overcast
2:35 PM 60.8 °F - 53.6 °F 77% 29.93 in 10.0 mi South 13.8 mph 23.0 mph N/A   Overcast
2:55 PM 60.8 °F - 53.6 °F 77% 29.93 in 10.0 mi South 13.8 mph 24.2 mph N/A   Overcast
3:15 PM 62.6 °F - 53.6 °F 72% 29.92 in 10.0 mi South 17.3 mph 24.2 mph N/A   Mostly Cloudy
3:35 PM 62.6 °F - 53.6 °F 72% 29.91 in 10.0 mi South 17.3 mph 27.6 mph N/A   Mostly Cloudy
3:55 PM 62.6 °F - 53.6 °F 72% 29.92 in 10.0 mi South 18.4 mph 26.5 mph N/A   Mostly Cloudy
4:15 PM 60.8 °F - 53.6 °F 77% 29.91 in 10.0 mi South 20.7 mph 25.3 mph N/A   Overcast
4:35 PM 60.8 °F - 53.6 °F 77% 29.92 in 10.0 mi South 15.0 mph 25.3 mph N/A   Overcast
4:55 PM 60.8 °F - 53.6 °F 77% 29.92 in 10.0 mi SSW 13.8 mph 18.4 mph N/A   Overcast
5:15 PM 60.8 °F - 53.6 °F 77% 29.92 in 10.0 mi South 16.1 mph 21.9 mph N/A   Overcast
5:35 PM 60.8 °F - 53.6 °F 77% 29.92 in 10.0 mi South 17.3 mph 20.7 mph N/A   Overcast
5:55 PM 60.8 °F - 53.6 °F 77% 29.91 in 10.0 mi South 21.9 mph 25.3 mph N/A   Overcast
6:15 PM 60.8 °F - 55.4 °F 82% 29.92 in 10.0 mi South 15.0 mph 21.9 mph N/A   Overcast
6:35 PM 60.8 °F - 55.4 °F 82% 29.91 in 10.0 mi South 11.5 mph 19.6 mph N/A   Overcast
6:55 PM 60.8 °F - 53.6 °F 77% 29.91 in 10.0 mi South 12.7 mph - N/A   Mostly Cloudy
7:15 PM 60.8 °F - 55.4 °F 82% 29.92 in 10.0 mi South 12.7 mph 20.7 mph N/A   Overcast
7:35 PM 60.8 °F - 55.4 °F 82% 29.93 in 10.0 mi South 15.0 mph 20.7 mph N/A   Overcast
7:55 PM 60.8 °F - 55.4 °F 82% 29.93 in 10.0 mi South 17.3 mph 23.0 mph N/A   Overcast
8:15 PM 60.8 °F - 55.4 °F 82% 29.92 in 10.0 mi South 16.1 mph 20.7 mph N/A   Mostly Cloudy
8:35 PM 60.8 °F - 55.4 °F 82% 29.91 in 10.0 mi South 13.8 mph 25.3 mph N/A   Mostly Cloudy
8:55 PM 60.8 °F - 55.4 °F 82% 29.91 in 10.0 mi South 18.4 mph 26.5 mph N/A   Mostly Cloudy
9:15 PM 60.8 °F - 55.4 °F 82% 29.91 in 10.0 mi South 18.4 mph 25.3 mph N/A   Scattered Clouds
9:35 PM 60.8 °F - 55.4 °F 82% 29.90 in 10.0 mi South 18.4 mph 27.6 mph N/A   Scattered Clouds
9:55 PM 60.8 °F - 55.4 °F 82% 29.89 in 10.0 mi South 17.3 mph 25.3 mph N/A   Scattered Clouds
10:15 PM 60.8 °F - 55.4 °F 82% 29.89 in 10.0 mi South 16.1 mph 25.3 mph N/A   Scattered Clouds
10:35 PM 60.8 °F - 55.4 °F 82% 29.90 in 10.0 mi South 17.3 mph 21.9 mph N/A   Scattered Clouds
10:55 PM 60.8 °F - 55.4 °F 82% 29.91 in 10.0 mi South 17.3 mph 26.5 mph N/A   Mostly Cloudy
11:15 PM 60.8 °F - 55.4 °F 82% 29.91 in 10.0 mi South 17.3 mph 24.2 mph N/A   Scattered Clouds
11:35 PM 60.8 °F - 55.4 °F 82% 29.91 in 10.0 mi South 17.3 mph 25.3 mph N/A   Scattered Clouds
11:55 PM 62.6 °F - 57.2 °F 82% 29.91 in 10.0 mi South 16.1 mph 26.5 mph N/A   Mostly Cloudy